Home > Weather > Scarborough > Past weeks

Flag for Trinidad and Tobago Past Weather in Scarborough, Trinidad and Tobago — Yesterday and Last 2 Weeks

Now
86 °F

Passing clouds.


Feels Like: 93 °F
Forecast: 82 / 84 °F
Wind: 12 mph from Southeast

Location: Crown Pt./ Scarborou

Current Time: Jun 30, 2016 at 1:52:26 PM

Latest Report: Jun 30, 2016 at 1:00 PM


Visibility: N/A

Pressure: 29.98 "Hg

Humidity: 66%

Dew Point: 73 °F

Location of ScarboroughLocation

Past Weather in Scarborough — Graph

°F

Scarborough Temperature Yesterday

Maximum temperature yesterday: 88 °F (at 2:00 PM)
Minimum temperature yesterday: 79 °F (at 12:00 AM)
Average temperature yesterday: 82 °F

High & Low Weather Summary for the Past Weeks

 TemperatureHumidityPressure
High90 °F (Jun 15, 2:00 PM)100% (Jun 28, 7:00 AM)30.09 "Hg (Jun 28, 7:00 AM)
Low75 °F (Jun 23, 12:00 PM)20% (Jun 17, 2:00 AM)29.89 "Hg (Jun 18, 5:00 PM)
Average82 °F76%29.98 "Hg
* Reported Jun 15 1:00 PM — Jun 30 12:00 PM, Scarborough, Weather by CustomWeather, © 2016

Note: Actual official high and low records may vary slightly from our data, if they occured in-between our weather recording intervals... More about our weather records

Advertising

Scarborough Weather History for the Previous 24 Hours

Scroll right to see more
 ConditionsComfort  
Time TempWeatherWind HumidityBarometerVisibility
12:00 PM
Thu, Jun 30
86 °FPassing clouds.14 mph66%29.98 "HgN/A
11:00 AM86 °FPassing clouds.14 mph62%30.01 "HgN/A
10:00 AM84 °FPassing clouds.6 mph66%30.01 "HgN/A
9:00 AM82 °FScattered clouds.6 mph66%30.01 "HgN/A
8:00 AM77 °FScattered clouds.No wind83%30.01 "HgN/A
7:00 AM79 °FScattered clouds.No wind79%29.98 "HgN/A
6:00 AM77 °FPassing clouds.No wind83%29.98 "HgN/A
5:00 AM77 °FPassing clouds.No wind83%29.98 "HgN/A
3:00 AM79 °FPassing clouds.3 mph79%29.95 "HgN/A
2:00 AM79 °FPassing clouds.5 mph79%29.98 "HgN/A
12:00 AM81 °FPassing clouds.12 mph70%30.01 "HgN/A
11:00 PM
Wed, Jun 29
81 °FPassing clouds.8 mph74%30.01 "HgN/A
10:00 PM81 °FPassing clouds.7 mph74%30.01 "HgN/A
9:00 PM81 °FPassing clouds.9 mph74%29.98 "HgN/A
8:00 PM81 °FPassing clouds.6 mph74%29.98 "HgN/A
7:00 PM82 °FPassing clouds.9 mph70%29.95 "HgN/A
6:00 PM84 °FPassing clouds.16 mph66%29.92 "HgN/A
5:00 PM84 °FPassing clouds.16 mph70%29.92 "HgN/A
4:00 PM86 °FPassing clouds.14 mph62%29.92 "HgN/A
3:00 PM86 °FPassing clouds.18 mph66%29.95 "HgN/A
2:00 PM88 °FPassing clouds.20 mph66%29.95 "HgN/A
1:00 PM86 °FPassing clouds.21 mph70%29.98 "HgN/A
Weather by CustomWeather, © 2016

See weather overviewHow to use our weather pages